Total_Precipitation_Accumulation
0.07 0.05 0.05 0.06 0.03 0.01 0.00 0.00 0.00 0.00 0.00 0.00 0.00 0.00 0.00 0.00 0.00 0.00 0.00 0.00 0.00 0.02 0.09 0.20 0.31 0.37 0.41 0.43 0.41 0.39 0.39 0.38 0.41 0.42 0.42 0.41 0.42 0.43 0.47 0.48 0.48 0.48 0.45 0.48 0.56 0.60 0.59 0.57 0.52
0.07 0.07 0.08 0.09 0.04 0.01 0.00 0.00 0.00 0.00 0.00 0.00 0.00 0.00 0.00 0.00 0.00 0.00 0.01 0.01 0.01 0.03 0.08 0.13 0.25 0.33 0.38 0.40 0.40 0.41 0.43 0.43 0.48 0.47 0.45 0.45 0.45 0.44 0.47 0.48 0.47 0.48 0.46 0.45 0.48 0.47 0.48 0.44 0.37
0.11 0.12 0.12 0.09 0.03 0.00 0.00 0.00 0.00 0.00 0.00 0.00 0.00 0.00 0.00 0.00 0.00 0.00 0.01 0.01 0.01 0.04 0.08 0.15 0.27 0.33 0.37 0.41 0.43 0.44 0.43 0.46 0.53 0.54 0.51 0.49 0.51 0.49 0.48 0.46 0.46 0.43 0.42 0.42 0.44 0.40 0.40 0.39 0.36
0.14 0.18 0.14 0.08 0.02 0.00 0.00 0.00 0.00 0.00 0.00 0.00 0.00 0.00 0.00 0.00 0.00 0.00 0.01 0.01 0.02 0.05 0.08 0.17 0.27 0.35 0.37 0.40 0.41 0.42 0.43 0.47 0.53 0.52 0.51 0.51 0.55 0.52 0.48 0.46 0.44 0.41 0.40 0.41 0.41 0.39 0.39 0.37 0.35
0.18 0.18 0.14 0.06 0.01 0.00 0.00 0.00 0.00 0.00 0.00 0.00 0.00 0.00 0.00 0.00 0.00 0.01 0.01 0.02 0.03 0.06 0.11 0.17 0.30 0.38 0.40 0.41 0.43 0.45 0.46 0.49 0.50 0.51 0.51 0.53 0.57 0.54 0.49 0.43 0.41 0.39 0.37 0.39 0.41 0.38 0.39 0.40 0.38
0.23 0.19 0.10 0.03 0.01 0.00 0.00 0.00 0.00 0.00 0.00 0.00 0.00 0.00 0.00 0.01 0.01 0.01 0.02 0.03 0.04 0.08 0.13 0.21 0.37 0.42 0.43 0.45 0.44 0.46 0.49 0.54 0.54 0.51 0.53 0.56 0.60 0.56 0.51 0.46 0.43 0.41 0.39 0.38 0.35 0.31 0.31 0.35 0.38
0.26 0.19 0.07 0.02 0.01 0.01 0.00 0.00 0.00 0.00 0.00 0.00 0.00 0.00 0.01 0.02 0.02 0.02 0.03 0.04 0.07 0.11 0.17 0.26 0.41 0.47 0.52 0.53 0.52 0.52 0.55 0.58 0.58 0.56 0.54 0.55 0.58 0.56 0.52 0.46 0.45 0.42 0.40 0.39 0.34 0.30 0.28 0.29 0.29
0.31 0.28 0.12 0.03 0.01 0.01 0.01 0.01 0.01 0.01 0.01 0.00 0.01 0.01 0.01 0.02 0.03 0.04 0.06 0.06 0.09 0.15 0.22 0.31 0.41 0.49 0.53 0.57 0.56 0.55 0.54 0.57 0.60 0.59 0.58 0.53 0.53 0.56 0.53 0.44 0.43 0.43 0.42 0.42 0.39 0.35 0.32 0.30 0.28
0.44 0.42 0.19 0.05 0.03 0.02 0.01 0.02 0.02 0.02 0.02 0.01 0.01 0.02 0.02 0.03 0.04 0.08 0.12 0.14 0.17 0.23 0.28 0.36 0.45 0.53 0.62 0.65 0.59 0.63 0.63 0.63 0.65 0.63 0.61 0.61 0.56 0.54 0.51 0.44 0.40 0.41 0.43 0.43 0.41 0.39 0.37 0.35 0.28
0.54 0.40 0.15 0.05 0.04 0.05 0.03 0.03 0.03 0.03 0.03 0.03 0.02 0.02 0.03 0.05 0.07 0.10 0.13 0.16 0.19 0.24 0.31 0.38 0.47 0.57 0.70 0.76 0.75 0.78 0.74 0.66 0.64 0.57 0.58 0.60 0.60 0.58 0.51 0.46 0.43 0.42 0.45 0.48 0.47 0.43 0.41 0.37 0.28
0.45 0.31 0.13 0.07 0.07 0.09 0.07 0.05 0.03 0.04 0.04 0.05 0.05 0.04 0.04 0.07 0.09 0.11 0.12 0.13 0.16 0.24 0.33 0.41 0.51 0.62 0.72 0.78 0.80 0.79 0.78 0.70 0.66 0.60 0.58 0.59 0.63 0.60 0.56 0.54 0.53 0.51 0.46 0.48 0.51 0.54 0.49 0.45 0.37
0.38 0.24 0.14 0.09 0.10 0.13 0.12 0.09 0.06 0.04 0.03 0.04 0.06 0.05 0.05 0.07 0.09 0.10 0.12 0.15 0.18 0.26 0.36 0.45 0.55 0.67 0.77 0.81 0.83 0.79 0.72 0.66 0.61 0.62 0.62 0.62 0.59 0.54 0.50 0.46 0.43 0.44 0.42 0.42 0.46 0.48 0.50 0.53 0.50
0.36 0.24 0.15 0.10 0.11 0.13 0.13 0.12 0.11 0.05 0.02 0.03 0.05 0.06 0.07 0.07 0.08 0.10 0.13 0.17 0.19 0.23 0.36 0.46 0.57 0.65 0.77 0.88 0.85 0.82 0.75 0.65 0.62 0.63 0.62 0.60 0.57 0.51 0.48 0.45 0.45 0.43 0.39 0.37 0.39 0.38 0.36 0.38 0.42
0.32 0.28 0.23 0.16 0.12 0.12 0.14 0.12 0.13 0.07 0.04 0.04 0.05 0.06 0.07 0.08 0.11 0.13 0.14 0.18 0.21 0.24 0.34 0.46 0.57 0.64 0.74 0.83 0.84 0.81 0.79 0.77 0.74 0.65 0.59 0.59 0.60 0.55 0.49 0.46 0.43 0.43 0.43 0.41 0.39 0.37 0.35 0.30 0.28
0.35 0.38 0.31 0.20 0.14 0.13 0.18 0.18 0.13 0.07 0.07 0.07 0.06 0.05 0.07 0.08 0.12 0.14 0.16 0.18 0.22 0.27 0.37 0.47 0.54 0.65 0.71 0.77 0.85 0.86 0.81 0.79 0.80 0.73 0.68 0.67 0.65 0.64 0.60 0.54 0.47 0.43 0.43 0.42 0.43 0.41 0.38 0.34 0.29
0.49 0.54 0.44 0.23 0.16 0.16 0.29 0.23 0.09 0.07 0.11 0.11 0.08 0.07 0.08 0.09 0.11 0.16 0.18 0.19 0.24 0.30 0.40 0.53 0.58 0.63 0.69 0.73 0.85 0.86 0.88 0.83 0.83 0.86 0.81 0.74 0.72 0.70 0.67 0.66 0.62 0.57 0.52 0.47 0.46 0.44 0.42 0.38 0.34
0.71 0.62 0.41 0.26 0.20 0.21 0.31 0.25 0.09 0.08 0.12 0.13 0.10 0.09 0.09 0.11 0.13 0.14 0.18 0.18 0.20 0.27 0.38 0.53 0.62 0.66 0.69 0.72 0.82 0.92 0.93 0.92 0.87 0.89 0.91 0.83 0.80 0.78 0.74 0.70 0.71 0.74 0.69 0.59 0.52 0.47 0.42 0.40 0.36
0.73 0.52 0.37 0.28 0.21 0.22 0.28 0.22 0.10 0.08 0.10 0.11 0.11 0.10 0.09 0.11 0.13 0.14 0.19 0.24 0.24 0.26 0.37 0.52 0.67 0.74 0.77 0.83 0.86 0.99 1.03 0.95 0.91 0.87 0.90 0.90 0.86 0.85 0.84 0.77 0.72 0.74 0.75 0.71 0.61 0.52 0.47 0.42 0.40
0.51 0.50 0.40 0.26 0.22 0.23 0.23 0.20 0.13 0.08 0.08 0.08 0.07 0.08 0.08 0.07 0.08 0.13 0.19 0.27 0.32 0.32 0.39 0.52 0.64 0.77 0.83 0.89 0.88 0.87 0.94 0.94 0.88 0.82 0.86 0.99 0.98 0.92 0.92 0.90 0.85 0.79 0.75 0.70 0.64 0.59 0.56 0.52 0.48
0.55 0.54 0.42 0.29 0.25 0.30 0.27 0.21 0.13 0.08 0.08 0.09 0.08 0.07 0.07 0.08 0.09 0.14 0.19 0.25 0.29 0.34 0.38 0.49 0.64 0.75 0.79 0.79 0.85 0.84 0.88 0.90 0.93 0.89 0.90 0.97 1.05 1.02 0.96 0.96 0.94 0.89 0.80 0.74 0.68 0.65 0.67 0.64 0.56
0.58 0.49 0.37 0.33 0.30 0.34 0.36 0.31 0.17 0.10 0.09 0.10 0.12 0.11 0.10 0.10 0.11 0.15 0.19 0.23 0.26 0.31 0.35 0.41 0.57 0.76 0.82 0.80 0.90 0.98 1.05 1.10 1.08 1.02 0.95 0.97 1.00 0.99 0.94 0.90 0.86 0.90 0.88 0.82 0.75 0.70 0.69 0.71 0.65
0.56 0.32 0.30 0.35 0.45 0.46 0.41 0.50 0.24 0.14 0.12 0.12 0.13 0.15 0.15 0.12 0.13 0.18 0.22 0.26 0.27 0.33 0.37 0.39 0.49 0.65 0.85 0.88 0.90 0.96 1.01 1.03 1.07 1.00 0.95 0.94 1.00 1.03 0.98 0.96 0.89 0.83 0.81 0.77 0.72 0.71 0.70 0.75 0.75
0.41 0.29 0.32 0.41 0.52 0.53 0.41 0.53 0.32 0.18 0.16 0.13 0.11 0.12 0.13 0.13 0.16 0.20 0.24 0.29 0.33 0.40 0.47 0.47 0.51 0.59 0.79 0.85 0.85 0.90 0.93 0.95 1.03 1.07 1.01 0.98 1.02 1.08 1.09 1.05 1.00 0.94 0.85 0.76 0.70 0.70 0.72 0.74 0.76
0.38 0.45 0.53 0.59 0.81 0.84 0.33 0.38 0.38 0.30 0.27 0.19 0.14 0.15 0.14 0.15 0.18 0.22 0.28 0.35 0.39 0.45 0.57 0.56 0.58 0.59 0.70 0.87 0.85 0.82 0.87 0.89 0.95 1.00 1.07 1.08 1.06 1.07 1.08 1.08 1.04 0.99 0.97 0.88 0.78 0.74 0.74 0.73 0.72
0.63 0.92 1.35 1.39 1.27 0.70 0.17 0.23 0.35 0.30 0.27 0.21 0.17 0.18 0.17 0.18 0.21 0.25 0.32 0.39 0.41 0.45 0.58 0.60 0.60 0.63 0.64 0.79 0.86 0.80 0.80 0.83 0.84 0.91 0.95 1.02 1.08 1.07 1.07 1.09 1.08 1.03 0.98 0.95 0.89 0.86 0.83 0.80 0.81
0.65 0.79 1.05 0.97 0.60 0.25 0.13 0.21 0.27 0.25 0.19 0.15 0.16 0.17 0.19 0.17 0.19 0.23 0.28 0.35 0.40 0.41 0.52 0.61 0.63 0.66 0.64 0.72 0.86 0.88 0.85 0.87 0.82 0.87 0.93 0.94 0.96 0.97 0.94 0.97 1.00 0.98 0.92 0.91 0.91 0.91 0.87 0.88 0.91
0.54 0.57 0.51 0.69 0.45 0.27 0.21 0.19 0.20 0.17 0.13 0.14 0.15 0.15 0.18 0.20 0.22 0.25 0.28 0.31 0.33 0.40 0.46 0.54 0.65 0.71 0.71 0.71 0.84 0.99 1.05 0.97 0.87 0.84 0.88 0.91 0.89 0.90 0.93 0.91 0.92 0.87 0.84 0.82 0.81 0.83 0.82 0.86 0.90
0.49 0.54 0.67 0.93 0.74 0.40 0.22 0.22 0.33 0.26 0.22 0.18 0.16 0.15 0.15 0.20 0.26 0.29 0.29 0.32 0.34 0.36 0.42 0.47 0.59 0.70 0.75 0.71 0.78 0.93 1.15 1.17 1.03 0.97 0.87 0.86 0.85 0.85 0.87 0.90 0.89 0.88 0.83 0.82 0.82 0.78 0.75 0.80 0.83
0.53 0.67 0.84 0.88 0.64 0.49 0.30 0.29 0.34 0.30 0.25 0.19 0.15 0.12 0.13 0.16 0.21 0.25 0.28 0.35 0.38 0.37 0.42 0.47 0.53 0.62 0.70 0.68 0.73 0.83 1.00 1.22 1.23 1.13 1.01 0.88 0.83 0.81 0.80 0.83 0.85 0.86 0.86 0.86 0.91 0.86 0.78 0.79 0.81
0.49 0.58 0.70 0.87 0.64 0.37 0.32 0.27 0.20 0.18 0.18 0.16 0.13 0.12 0.12 0.16 0.18 0.21 0.25 0.33 0.38 0.39 0.41 0.44 0.50 0.57 0.64 0.65 0.68 0.77 0.85 1.03 1.25 1.19 1.06 0.94 0.88 0.84 0.84 0.83 0.86 0.85 0.87 0.89 0.93 0.90 0.82 0.80 0.81